Tracking 27107 objects as of 22-Mar-2023
HD Live streaming from Space Station
objects crossing your sky now

SL-12 R/B(AUX MOTOR)

Track SL-12 R/B(AUX MOTOR) now!
10-day predictions


NORAD ID: 23403
Int'l Code: 1994-076H
Perigee: 535.0 km
Apogee: 18,812.2 km
Inclination: 65.3 °
Period: 337.1 minutes
Semi major axis: 16044 km
RCS: 0.7427 m2 (medium)
Launch date: November 20, 1994
Source: Commonwealth of Independent States (former USSR) (CIS)
Launch site: TYURATAM MISSILE AND SPACE COMPLEX (TTMTR)

Note: This is a ROCKET BODY
Your satellite tracking list
Your tracking list is empty




NASA's NSSDC Master Catalog

Two Line Element Set (TLE):
1 23403U 94076H   23080.25763248  .00000055  00000-0  50693-3 0  9994
2 23403  65.2579  25.0403 5695772 173.5830 348.0934  4.27178926440094
Source of the keplerian elements: AFSPC